Flag for Congo Weather past 2 weeks in Brazzaville, Congo

Now
75 °F

Passing clouds.


Feels Like: 75 °F
Forecast: 71 / 89 °F
Wind: 7 mph from Southwest

Location: Brazzaville / Maya-Maya

Current Time: May 28, 2015 at 11:47:46 PM

Latest Report: May 28, 2015 at 11:00 PM


Visibility: 5 mi

Pressure: 29.95 "Hg

Humidity: 83%

Dew point: 70 °F

Location of BrazzavilleLocation

Historic Weather in Brazzaville — Graph

°F

Brazzaville temperature yesterday

Maximum temperature yesterday: 90 °F (at 2:00 PM)
Minimum temperature yesterday: 73 °F (at 2:00 AM)
Average temperature yesterday: 80 °F

Past Weeks' High & Low Weather Summary

 TemperatureHumidityPressure
High93 °F (May 14, 2:00 PM)100% (May 14, 7:00 AM)30.01 "Hg (May 14, 7:00 AM)
Low72 °F (May 17, 2:00 AM)49% (May 14, 2:00 PM)29.74 "Hg (May 14, 3:00 PM)
Average80 °F81%29.92 "Hg
* Reported May 13 10:00 PM — May 28 10:00 PM, Brazzaville, Weather by CustomWeather, © 2015

Note: Actual official high and low records may vary slightly from our data, if they occured in-between our weather recording intervals... More about our weather records

Advertising

Brazzaville weather history for previous 24 hours

 ConditionsComfort  
Time TempWeatherWind HumidityBarometerVisibility
10:00 PM
Thu, May 28
75 °FPassing clouds.10 mph83%29.92 "Hg5 mi
9:00 PM75 °FPassing clouds.9 mph83%29.92 "Hg5 mi
8:00 PM75 °FPassing clouds.12 mph83%29.89 "Hg5 mi
7:00 PM77 °FPassing clouds.7 mph83%29.86 "Hg5 mi
6:00 PM77 °FPassing clouds.6 mph89%29.83 "Hg5 mi
5:00 PM81 °FScattered clouds.8 mph79%29.80 "Hg5 mi
4:00 PM82 °FPartly sunny.8 mph70%29.83 "Hg5 mi
3:00 PM81 °FBroken clouds.6 mph79%29.83 "Hg5 mi
2:00 PM81 °FBroken clouds.5 mph74%29.86 "Hg5 mi
1:00 PM79 °FBroken clouds.6 mph79%29.89 "Hg5 mi
12:00 PM81 °FBroken clouds.3 mph74%29.92 "Hg5 mi
11:00 AM77 °FBroken clouds.6 mph83%29.95 "Hg5 mi
10:00 AM77 °FBroken clouds.8 mph83%29.98 "Hg5 mi
9:00 AM77 °FBroken clouds.7 mph83%29.98 "Hg4 mi
8:00 AM77 °FPassing clouds.5 mph83%29.98 "Hg4 mi
7:00 AM73 °FPassing clouds.3 mph94%29.95 "Hg4 mi
6:00 AM73 °FClear.3 mph94%29.92 "Hg5 mi
5:00 AM73 °FClear.3 mph94%29.92 "Hg5 mi
4:00 AM73 °FClear.2 mph94%29.89 "Hg5 mi
3:00 AM75 °FClear.2 mph89%29.89 "Hg5 mi
2:00 AM75 °FClear.3 mph89%29.89 "Hg5 mi
1:00 AM77 °FClear.3 mph89%29.92 "Hg5 mi
12:00 AM77 °FClear.No wind89%29.92 "Hg5 mi
11:00 PM
Wed, May 27
79 °FClear.3 mph84%29.92 "Hg5 mi
Weather by CustomWeather, © 2015

See weather overviewHow to use our weather pages